DW9987 Weather Reports


Display with metric or nautical units.
time (UTC)temp
F
wind
direction
speed
MPH
gust
MPH
rain 1hr
in
rain 24hr
in
rain mn
in
humidity
%
barometer
mb
20260831231541 80 193 0.0 0.0 0.03 0.12 0.10 90 1013.3
20260831230043 81 193 0.0 0.0 0.03 0.12 0.10 89 1012.8
20260831224541 82 193 0.0 0.0 0.03 0.14 0.10 85 1012.1
20260831223051 84 193 0.0 0.0 0.03 0.14 0.10 79 1012.2
20260831221540 87 193 0.0 2.0 0.00 0.11 0.07 70 1012.4
20260831220042 88 207 0.0 2.0 0.00 0.11 0.07 65 1012.2
20260831214554 88 254 1.0 6.0 0.00 0.11 0.07 65 1012.0
20260831213038 88 193 0.0 6.0 0.00 0.11 0.07 65 1012.2
20260831211538 89 163 1.0 6.0 0.00 0.11 0.07 61 1012.2
20260831210039 90 169 0.0 3.0 0.00 0.11 0.07 64 1012.3
20260831204534 90 213 0.0 5.0 0.00 0.12 0.07 61 1012.4
20260831203031 89 240 0.0 5.0 0.00 0.12 0.07 63 1012.6
20260831201531 89 229 1.0 4.0 0.00 0.12 0.07 61 1012.6
20260831200030 90 115 2.0 8.0 0.00 0.12 0.07 62 1012.5
20260831194530 89 184 4.0 12.0 0.00 0.12 0.07 63 1012.5
20260831193046 88 194 3.0 11.0 0.00 0.12 0.07 61 1012.5
20260831191526 89 201 2.0 10.0 0.00 0.12 0.07 64 1012.6
20260831190025 88 11 1.0 7.0 0.00 0.12 0.07 67 1012.7
20260831184519 87 215 3.0 10.0 0.00 0.12 0.07 65 1012.6
20260831183015 86 211 5.0 11.0 0.00 0.12 0.07 65 1012.8
20260831181520 85 198 3.0 10.0 0.00 0.12 0.07 69 1012.9
20260831180011 84 204 3.0 10.0 0.00 0.12 0.07 69 1013.0
20260831174505 83 229 3.0 7.0 0.00 0.12 0.07 74 1013.3
20260831173005 82 160 1.0 9.0 0.00 0.12 0.07 75 1013.3
20260831171558 80 193 2.0 5.0 0.00 0.12 0.07 81 1013.6
20260831170054 78 263 2.0 8.0 0.00 0.12 0.07 83 1013.8
20260831164606 77 180 4.0 11.0 0.00 0.12 0.07 85 1014.2
20260831163047 75 153 0.0 3.0 0.00 0.12 0.07 92 1014.2
20260831161559 73 139 0.0 2.0 0.04 0.12 0.07 94 1014.2
20260831160059 71 214 0.0 3.0 0.04 0.12 0.07 94 1014.2
20260831154549 71 190 0.0 3.0 0.04 0.12 0.07 93 1014.4
20260831153044 71 198 0.0 3.0 0.04 0.12 0.07 92 1014.5
20260831151546 71 190 0.0 3.0 0.00 0.08 0.03 93 1014.7
20260831150042 71 213 0.0 5.0 0.00 0.08 0.03 93 1014.6
20260831144539 70 236 0.0 2.0 0.00 0.08 0.03 94 1014.4
20260831143039 69 230 0.0 3.0 0.00 0.08 0.03 95 1014.4
20260831141538 69 346 0.0 0.0 0.00 0.08 0.03 94 1014.4
20260831140038 69 234 0.0 2.0 0.00 0.08 0.03 94 1014.4
20260831134538 69 223 0.0 2.0 0.02 0.10 0.03 93 1014.4
20260831133036 69 224 0.0 0.0 0.03 0.10 0.03 93 1014.3
20260831131552 69 225 0.0 0.0 0.03 0.10 0.03 92 1014.2
20260831130041 69 220 0.0 0.0 0.03 0.10 0.03 91 1014.3
20260831124537 70 221 0.0 0.0 0.01 0.13 0.01 89 1014.4
20260831123028 71 221 0.0 0.0 0.00 0.12 0.00 88 1014.0
20260831121530 70 204 0.0 5.0 0.00 0.12 0.00 86 1013.7
20260831120026 70 206 1.0 5.0 0.00 0.12 0.00 86 1013.4
20260831114525 70 207 1.0 3.0 0.00 0.15 0.00 87 1013.5
20260831113025 70 202 0.0 3.0 0.00 0.15 0.00 88 1013.3
20260831111533 70 195 0.0 3.0 0.00 0.15 0.00 88 1013.4
20260831110022 71 195 0.0 3.0 0.00 0.15 0.00 85 1013.4
20260831104526 71 200 0.0 4.0 0.00 0.15 0.00 83 1013.6
20260831103021 71 194 0.0 2.0 0.00 0.15 0.00 83 1013.6
20260831101521 71 210 0.0 2.0 0.00 0.15 0.00 84 1013.5
20260831100022 70 204 0.0 4.0 0.00 0.15 0.00 85 1013.2
20260831094531 70 242 0.0 2.0 0.00 0.17 0.00 87 1013.3
20260831093041 70 236 0.0 2.0 0.00 0.17 0.00 88 1013.3
20260831091520 70 221 0.0 2.0 0.00 0.17 0.00 88 1013.5
20260831090015 71 265 0.0 0.0 0.00 0.17 0.00 87 1013.6
20260831084514 71 208 0.0 0.0 0.00 0.17 0.00 87 1013.3
20260831083012 71 199 0.0 4.0 0.00 0.17 0.00 86 1013.5
20260831081511 72 213 0.0 4.0 0.00 0.17 0.00 86 1013.3
20260831080009 72 225 0.0 4.0 0.00 0.17 0.00 85 1013.4
20260831074508 72 216 1.0 5.0 0.00 0.17 0.00 84 1013.5
20260831073006 73 195 2.0 5.0 0.00 0.17 0.00 84 1013.5
20260831071506 73 199 2.0 7.0 0.00 0.17 0.00 84 1013.6
20260831070003 73 226 3.0 7.0 0.00 0.17 0.00 84 1013.6
20260831064502 74 225 2.0 6.0 0.00 0.17 0.00 84 1013.7
20260831063002 74 201 3.0 7.0 0.00 0.17 0.00 83 1013.7
20260831061600 74 224 3.0 10.0 0.00 0.17 0.00 84 1013.6
20260831060100 74 211 3.0 7.0 0.00 0.17 0.00 85 1013.9
20260831054559 74 192 2.0 7.0 0.00 0.18 0.00 86 1013.7
20260831053129 74 227 2.0 7.0 0.00 0.18 0.00 87 1013.7
20260831051555 74 197 1.0 6.0 0.00 0.18 0.00 87 1013.7
20260831050053 74 192 2.0 9.0 0.00 0.18 0.00 86 1013.9
20260831044638 74 198 2.0 8.0 0.00 0.18 0.18 88 1013.9
20260831043052 74 196 3.0 10.0 0.00 0.18 0.18 91 1014.0
20260831041557 73 225 3.0 7.0 0.00 0.18 0.18 95 1014.1
20260831040051 72 209 1.0 3.0 0.00 0.18 0.18 96 1014.5
20260831034553 72 155 0.0 0.0 0.00 0.18 0.18 95 1014.5
20260831033105 72 203 0.0 3.0 0.00 0.18 0.18 95 1014.5
20260831031552 72 204 0.0 1.0 0.00 0.18 0.18 95 1014.8
20260831030050 72 206 0.0 3.0 0.00 0.18 0.18 95 1015.0
20260831024549 72 204 0.0 4.0 0.00 0.18 0.18 95 1014.8
20260831023048 72 242 1.0 3.0 0.01 0.18 0.18 95 1015.2
20260831021548 72 242 0.0 0.0 0.01 0.18 0.18 95 1015.5
20260831020048 72 242 0.0 0.0 0.02 0.18 0.18 95 1015.2
20260831014549 72 242 0.0 0.0 0.02 0.18 0.18 95 1014.7
20260831013047 72 242 0.0 0.0 0.01 0.17 0.17 94 1014.9
20260831011554 72 242 0.0 0.0 0.01 0.17 0.17 95 1015.0
20260831010059 72 242 0.0 0.0 0.00 0.16 0.16 94 1014.9
20260831004545 72 242 0.0 0.0 0.00 0.16 0.16 94 1014.7
20260831003045 72 201 0.0 0.0 0.00 0.16 0.16 94 1014.5
20260831001544 72 209 0.0 1.0 0.00 0.16 0.16 94 1013.9
20260831000045 73 323 0.0 0.0 0.00 0.16 0.16 94 1014.8
20260830234543 73 323 0.0 0.0 0.01 0.16 0.16 93 1015.2
20260830233043 73 323 1.0 3.0 0.02 0.16 0.16 93 1015.0